Time,TemperatureF,DewpointF,PressureIn,WindDirection,WindDirectionDegrees,WindSpeedMPH,WindSpeedGustMPH,Humidity,HourlyPrecipIn,Conditions,Clouds,dailyrainin,SoftwareType,DateUTC
2013-03-28 00:00:00,32.9,31.4,30.02,SW,222,0.5,3.5,94,0.00,,,0.00,WeatherDisplay:10.37,2013-03-28 04:00:00,
2013-03-28 00:02:00,32.9,31.4,30.02,SW,224,0.0,0.0,94,0.00,,,0.00,WeatherDisplay:10.37,2013-03-28 04:02:00,
2013-03-28 00:06:00,32.9,31.4,30.02,West,281,0.2,3.0,94,0.00,,,0.00,WeatherDisplay:10.37,2013-03-28 04:06:00,
2013-03-28 00:07:00,32.9,31.4,30.02,West,280,0.4,3.5,94,0.00,,,0.00,WeatherDisplay:10.37,2013-03-28 04:07:00,
2013-03-28 00:12:00,32.9,31.6,30.02,SSW,209,0.0,0.0,95,0.00,,,0.00,WeatherDisplay:10.37,2013-03-28 04:12:00,
2013-03-28 00:17:00,32.9,31.6,30.02,WSW,256,1.8,3.5,95,0.00,,,0.00,WeatherDisplay:10.37,2013-03-28 04:17:00,
2013-03-28 00:22:00,32.9,31.6,30.02,SW,229,0.0,0.0,95,0.00,,,0.00,WeatherDisplay:10.37,2013-03-28 04:22:00,
2013-03-28 00:27:00,32.9,31.6,30.02,SW,229,0.0,0.0,95,0.00,,,0.00,WeatherDisplay:10.37,2013-03-28 04:27:00,
2013-03-28 00:32:00,32.9,31.6,30.02,SW,233,1.3,3.5,95,0.00,,,0.00,WeatherDisplay:10.37,2013-03-28 04:32:00,
2013-03-28 00:38:00,32.9,31.4,30.02,SW,229,1.5,3.5,94,0.00,,,0.00,WeatherDisplay:10.37,2013-03-28 04:38:00,
2013-03-28 00:43:00,32.9,31.4,30.02,SW,226,0.0,0.0,94,0.00,,,0.00,WeatherDisplay:10.37,2013-03-28 04:43:00,
2013-03-28 00:48:00,33.0,31.5,30.02,WSW,238,0.0,0.0,94,0.00,,,0.00,WeatherDisplay:10.37,2013-03-28 04:48:00,
2013-03-28 00:53:00,33.0,31.5,30.02,SW,229,0.0,0.0,94,0.00,,,0.00,WeatherDisplay:10.37,2013-03-28 04:53:00,
2013-03-28 00:58:00,33.0,31.5,30.02,SW,219,0.4,3.5,94,0.00,,,0.00,WeatherDisplay:10.37,2013-03-28 04:58:00,
2013-03-28 01:03:00,33.0,31.5,30.02,SW,215,0.0,0.0,94,0.00,,,0.00,WeatherDisplay:10.37,2013-03-28 05:03:00,
2013-03-28 01:08:00,32.9,31.4,30.02,SW,217,3.6,4.6,94,0.00,,,0.00,WeatherDisplay:10.37,2013-03-28 05:08:00,
2013-03-28 01:14:00,32.9,31.4,30.02,WSW,252,0.0,0.0,94,0.00,,,0.00,WeatherDisplay:10.37,2013-03-28 05:14:00,
2013-03-28 01:19:00,32.9,31.4,30.02,SSW,210,0.0,0.0,94,0.00,,,0.00,WeatherDisplay:10.37,2013-03-28 05:19:00,
2013-03-28 01:24:00,32.9,31.4,30.02,SW,234,0.8,2.3,94,0.00,,,0.00,WeatherDisplay:10.37,2013-03-28 05:24:00,
2013-03-28 01:29:00,32.9,31.4,30.02,SW,233,0.0,0.0,94,0.00,,,0.00,WeatherDisplay:10.37,2013-03-28 05:29:00,
2013-03-28 01:34:00,32.9,31.4,30.02,SW,233,0.0,0.0,94,0.00,,,0.00,WeatherDisplay:10.37,2013-03-28 05:34:00,
2013-03-28 01:40:00,32.9,31.4,30.02,SW,214,0.0,0.0,94,0.00,,,0.00,WeatherDisplay:10.37,2013-03-28 05:40:00,
2013-03-28 01:45:00,32.9,31.4,30.02,SW,214,0.0,0.0,94,0.00,,,0.00,WeatherDisplay:10.37,2013-03-28 05:45:00,
2013-03-28 01:50:00,32.9,31.4,30.02,SW,227,0.0,0.0,94,0.00,,,0.00,WeatherDisplay:10.37,2013-03-28 05:50:00,
2013-03-28 01:55:00,32.9,31.4,30.02,SSW,212,0.0,0.0,94,0.00,,,0.00,WeatherDisplay:10.37,2013-03-28 05:55:00,
2013-03-28 02:00:00,32.9,31.4,30.02,SW,230,0.0,0.0,94,0.00,CLR,,0.00,WeatherDisplay:10.37,2013-03-28 06:00:00,
2013-03-28 02:05:00,33.0,31.5,30.02,SSW,208,1.2,3.5,94,0.00,CLR,,0.00,WeatherDisplay:10.37,2013-03-28 06:05:00,
2013-03-28 02:10:00,33.0,31.5,30.02,WSW,237,1.7,3.5,94,0.00,CLR,,0.00,WeatherDisplay:10.37,2013-03-28 06:10:00,
2013-03-28 02:15:00,32.9,31.4,30.03,SSW,210,0.0,0.0,94,0.00,CLR,,0.00,WeatherDisplay:10.37,2013-03-28 06:15:00,
2013-03-28 02:20:00,32.9,31.4,30.02,SW,225,0.0,0.0,94,0.00,CLR,,0.00,WeatherDisplay:10.37,2013-03-28 06:20:00,
2013-03-28 02:26:00,33.0,31.5,30.02,SW,217,0.0,0.0,94,0.00,CLR,,0.00,WeatherDisplay:10.37,2013-03-28 06:26:00,
2013-03-28 02:31:00,32.9,31.4,30.02,WSW,240,0.0,1.1,94,0.00,CLR,,0.00,WeatherDisplay:10.37,2013-03-28 06:31:00,
2013-03-28 02:36:00,32.9,31.1,30.02,SW,217,0.0,0.0,93,0.00,CLR,,0.00,WeatherDisplay:10.37,2013-03-28 06:36:00,
2013-03-28 02:41:00,32.9,31.4,30.02,SW,214,0.0,0.0,94,0.00,CLR,,0.00,WeatherDisplay:10.37,2013-03-28 06:41:00,
2013-03-28 02:46:00,32.9,31.1,30.02,SSW,209,0.4,3.5,93,0.00,CLR,,0.00,WeatherDisplay:10.37,2013-03-28 06:46:00,
2013-03-28 02:51:00,32.9,31.4,30.03,SW,217,0.0,0.0,94,0.00,CLR,,0.00,WeatherDisplay:10.37,2013-03-28 06:51:00,
2013-03-28 02:57:00,32.9,31.1,30.02,SW,227,0.0,0.0,93,0.00,CLR,,0.00,WeatherDisplay:10.37,2013-03-28 06:57:00,
2013-03-28 03:02:00,32.9,31.1,30.02,SW,225,0.0,0.0,93,0.00,CLR,,0.00,WeatherDisplay:10.37,2013-03-28 07:02:00,
2013-03-28 03:07:00,32.9,31.1,30.02,SW,229,0.0,0.0,93,0.00,CLR,,0.00,WeatherDisplay:10.37,2013-03-28 07:07:00,
2013-03-28 03:12:00,32.9,31.1,30.02,SW,214,1.5,4.6,93,0.00,CLR,,0.00,WeatherDisplay:10.37,2013-03-28 07:12:00,
2013-03-28 03:17:00,32.8,31.0,30.02,SW,225,0.3,3.0,93,0.00,CLR,,0.00,WeatherDisplay:10.37,2013-03-28 07:17:00,
2013-03-28 03:22:00,32.8,31.0,30.02,WSW,246,0.0,0.0,93,0.00,CLR,,0.00,WeatherDisplay:10.37,2013-03-28 07:22:00,
2013-03-28 03:28:00,32.9,31.1,30.02,SSW,204,0.0,0.0,93,0.00,CLR,,0.00,WeatherDisplay:10.37,2013-03-28 07:28:00,
2013-03-28 03:33:00,32.9,31.1,30.02,SSW,207,0.0,0.0,93,0.00,CLR,,0.00,WeatherDisplay:10.37,2013-03-28 07:33:00,
2013-03-28 03:38:00,32.9,31.1,30.02,SW,216,0.0,0.0,93,0.00,CLR,,0.00,WeatherDisplay:10.37,2013-03-28 07:38:00,
2013-03-28 03:43:00,32.8,31.0,30.03,SW,225,0.0,0.0,93,0.00,CLR,,0.00,WeatherDisplay:10.37,2013-03-28 07:43:00,
2013-03-28 03:48:00,32.8,31.0,30.03,SW,219,0.0,0.0,93,0.00,CLR,,0.00,WeatherDisplay:10.37,2013-03-28 07:48:00,
2013-03-28 03:53:00,32.8,31.0,30.02,SW,225,0.0,0.0,93,0.00,CLR,,0.00,WeatherDisplay:10.37,2013-03-28 07:53:00,
2013-03-28 03:58:00,32.8,31.0,30.03,SW,225,0.0,0.0,93,0.00,CLR,,0.00,WeatherDisplay:10.37,2013-03-28 07:58:00,
2013-03-28 04:04:00,32.8,31.0,30.03,SW,214,0.0,0.0,93,0.00,CLR,,0.00,WeatherDisplay:10.37,2013-03-28 08:04:00,
2013-03-28 04:09:00,32.8,31.0,30.03,SW,232,0.1,4.0,93,0.00,CLR,,0.00,WeatherDisplay:10.37,2013-03-28 08:09:00,
2013-03-28 04:14:00,32.7,30.9,30.02,SW,219,0.0,0.0,93,0.00,CLR,,0.00,WeatherDisplay:10.37,2013-03-28 08:14:00,
2013-03-28 04:19:00,32.7,30.9,30.03,SW,223,0.0,0.0,93,0.00,CLR,,0.00,WeatherDisplay:10.37,2013-03-28 08:19:00,
2013-03-28 04:24:00,32.8,31.0,30.03,SW,233,0.0,0.0,93,0.00,CLR,,0.00,WeatherDisplay:10.37,2013-03-28 08:24:00,
2013-03-28 04:29:00,32.8,31.0,30.03,SW,236,0.0,0.0,93,0.00,CLR,,0.00,WeatherDisplay:10.37,2013-03-28 08:29:00,
2013-03-28 04:34:00,32.8,31.0,30.03,SSW,205,0.0,0.0,93,0.00,CLR,,0.00,WeatherDisplay:10.37,2013-03-28 08:34:00,
2013-03-28 04:39:00,32.8,31.0,30.03,WSW,238,0.0,0.0,93,0.00,CLR,,0.00,WeatherDisplay:10.37,2013-03-28 08:39:00,
2013-03-28 04:44:00,32.8,31.0,30.03,SSW,201,0.0,0.0,93,0.00,CLR,,0.00,WeatherDisplay:10.37,2013-03-28 08:44:00,
2013-03-28 04:49:00,32.9,31.1,30.03,SW,230,0.0,0.0,93,0.00,CLR,,0.00,WeatherDisplay:10.37,2013-03-28 08:49:00,
2013-03-28 04:55:00,32.9,31.1,30.03,SW,223,0.0,0.0,93,0.00,CLR,,0.00,WeatherDisplay:10.37,2013-03-28 08:55:00,
2013-03-28 05:00:00,32.8,31.0,30.03,SW,230,0.0,0.0,93,0.00,CLR,,0.00,WeatherDisplay:10.37,2013-03-28 09:00:00,
2013-03-28 05:05:00,32.8,31.0,30.03,SW,214,0.0,0.0,93,0.00,CLR,,0.00,WeatherDisplay:10.37,2013-03-28 09:05:00,
2013-03-28 05:10:00,32.8,31.0,30.03,SW,229,0.0,0.0,93,0.00,CLR,,0.00,WeatherDisplay:10.37,2013-03-28 09:10:00,
2013-03-28 05:15:00,32.8,31.0,30.03,SW,229,0.0,0.0,93,0.00,CLR,,0.00,WeatherDisplay:10.37,2013-03-28 09:15:00,
2013-03-28 05:20:00,32.8,31.0,30.03,SW,236,0.0,0.0,93,0.00,CLR,,0.00,WeatherDisplay:10.37,2013-03-28 09:20:00,
2013-03-28 05:25:00,32.9,31.1,30.03,SW,235,0.0,0.0,93,0.00,CLR,,0.00,WeatherDisplay:10.37,2013-03-28 09:25:00,
2013-03-28 05:31:00,32.8,31.0,30.03,SW,232,1.2,3.5,93,0.00,CLR,,0.00,WeatherDisplay:10.37,2013-03-28 09:31:00,
2013-03-28 05:36:00,32.9,31.1,30.03,SW,225,0.0,0.0,93,0.00,CLR,,0.00,WeatherDisplay:10.37,2013-03-28 09:36:00,
2013-03-28 05:41:00,32.9,31.1,30.04,SW,232,0.0,0.0,93,0.00,CLR,,0.00,WeatherDisplay:10.37,2013-03-28 09:41:00,
2013-03-28 05:47:00,32.9,31.1,30.03,SW,225,0.8,3.5,93,0.00,CLR,,0.00,WeatherDisplay:10.37,2013-03-28 09:47:00,
2013-03-28 05:52:00,33.0,31.2,30.04,SW,233,0.1,2.3,93,0.00,CLR,,0.00,WeatherDisplay:10.37,2013-03-28 09:52:00,
2013-03-28 05:57:00,33.0,31.2,30.04,SW,222,0.1,1.1,93,0.00,CLR,,0.00,WeatherDisplay:10.37,2013-03-28 09:57:00,
2013-03-28 06:02:00,33.0,31.2,30.04,SW,230,0.5,3.5,93,0.00,CLR,,0.00,WeatherDisplay:10.37,2013-03-28 10:02:00,
2013-03-28 06:07:00,33.0,31.2,30.04,SW,231,0.0,0.0,93,0.00,CLR,,0.00,WeatherDisplay:10.37,2013-03-28 10:07:00,
2013-03-28 06:12:00,33.0,31.2,30.04,SSW,209,0.0,0.0,93,0.00,CLR,,0.00,WeatherDisplay:10.37,2013-03-28 10:12:00,
2013-03-28 06:17:00,33.0,31.2,30.04,SW,229,0.0,0.0,93,0.00,CLR,,0.00,WeatherDisplay:10.37,2013-03-28 10:17:00,
2013-03-28 06:23:00,33.1,31.3,30.05,SW,229,0.0,0.0,93,0.00,CLR,,0.00,WeatherDisplay:10.37,2013-03-28 10:23:00,
2013-03-28 06:28:00,33.1,31.3,30.05,SW,233,0.0,0.0,93,0.00,CLR,,0.00,WeatherDisplay:10.37,2013-03-28 10:28:00,
2013-03-28 06:33:00,33.2,31.4,30.05,SW,233,0.0,0.0,93,0.00,CLR,,0.00,WeatherDisplay:10.37,2013-03-28 10:33:00,
2013-03-28 06:38:00,33.2,31.4,30.05,SW,236,0.0,1.1,93,0.00,CLR,,0.00,WeatherDisplay:10.37,2013-03-28 10:38:00,
2013-03-28 06:43:00,33.2,31.4,30.05,SW,236,0.0,0.0,93,0.00,CLR,,0.00,WeatherDisplay:10.37,2013-03-28 10:43:00,
2013-03-28 06:49:00,33.3,31.5,30.05,SSW,211,0.0,0.0,93,0.00,CLR,,0.00,WeatherDisplay:10.37,2013-03-28 10:49:00,
2013-03-28 06:54:00,33.3,31.5,30.06,SW,235,0.0,0.0,93,0.00,CLR,,0.00,WeatherDisplay:10.37,2013-03-28 10:54:00,
2013-03-28 06:59:00,33.3,31.5,30.06,SSW,212,0.0,1.1,93,0.00,CLR,,0.00,WeatherDisplay:10.37,2013-03-28 10:59:00,
2013-03-28 07:04:00,33.3,31.5,30.06,WSW,241,0.0,0.0,93,0.00,CLR,,0.00,WeatherDisplay:10.37,2013-03-28 11:04:00,
2013-03-28 07:09:00,33.3,31.5,30.06,SW,234,0.4,3.5,93,0.00,CLR,,0.00,WeatherDisplay:10.37,2013-03-28 11:09:00,
2013-03-28 07:14:00,33.4,31.6,30.06,SW,225,0.0,0.0,93,0.00,CLR,,0.00,WeatherDisplay:10.37,2013-03-28 11:14:00,
2013-03-28 07:19:00,33.5,31.7,30.06,SW,221,0.0,0.0,93,0.00,CLR,,0.00,WeatherDisplay:10.37,2013-03-28 11:19:00,
2013-03-28 07:24:00,33.5,31.7,30.07,WSW,244,0.0,0.0,93,0.00,CLR,,0.00,WeatherDisplay:10.37,2013-03-28 11:24:00,
2013-03-28 07:29:00,33.5,31.7,30.07,SSW,213,0.0,0.0,93,0.00,CLR,,0.00,WeatherDisplay:10.37,2013-03-28 11:29:00,
2013-03-28 07:34:00,33.5,31.7,30.07,SW,229,0.0,0.0,93,0.00,CLR,,0.00,WeatherDisplay:10.37,2013-03-28 11:34:00,
2013-03-28 07:39:00,33.6,31.8,30.07,SSW,210,0.0,0.0,93,0.00,CLR,,0.00,WeatherDisplay:10.37,2013-03-28 11:39:00,
2013-03-28 07:45:00,33.7,31.9,30.07,SSW,198,0.0,0.0,93,0.00,CLR,,0.00,WeatherDisplay:10.37,2013-03-28 11:45:00,
2013-03-28 07:50:00,33.8,32.0,30.07,SW,229,0.0,0.0,93,0.00,CLR,,0.00,WeatherDisplay:10.37,2013-03-28 11:50:00,
2013-03-28 07:55:00,33.9,32.1,30.08,SW,229,0.0,0.0,93,0.00,CLR,,0.00,WeatherDisplay:10.37,2013-03-28 11:55:00,
2013-03-28 08:00:00,34.0,32.2,30.08,SW,229,0.0,0.0,93,0.00,CLR,,0.00,WeatherDisplay:10.37,2013-03-28 12:00:00,
2013-03-28 08:05:00,34.1,32.3,30.08,SW,225,0.0,0.0,93,0.00,CLR,,0.00,WeatherDisplay:10.37,2013-03-28 12:05:00,
2013-03-28 08:10:00,34.2,32.4,30.08,SW,222,0.0,0.0,93,0.00,CLR,,0.00,WeatherDisplay:10.37,2013-03-28 12:10:00,
2013-03-28 08:15:00,34.3,32.5,30.08,SSW,194,0.0,0.0,93,0.00,CLR,,0.00,WeatherDisplay:10.37,2013-03-28 12:15:00,
2013-03-28 08:20:00,34.4,32.6,30.08,West,265,0.0,3.5,93,0.00,CLR,,0.00,WeatherDisplay:10.37,2013-03-28 12:20:00,
2013-03-28 08:25:00,34.4,32.6,30.08,WSW,257,0.0,0.0,93,0.00,CLR,,0.00,WeatherDisplay:10.37,2013-03-28 12:25:00,
2013-03-28 08:30:00,34.4,32.6,30.08,WSW,258,0.0,0.0,93,0.00,CLR,,0.00,WeatherDisplay:10.37,2013-03-28 12:30:00,
2013-03-28 08:35:00,34.4,32.3,30.08,SSW,208,0.0,4.6,92,0.00,CLR,,0.00,WeatherDisplay:10.37,2013-03-28 12:35:00,
2013-03-28 08:40:00,34.5,32.4,30.08,West,266,0.0,0.0,92,0.00,CLR,,0.00,WeatherDisplay:10.37,2013-03-28 12:40:00,
2013-03-28 08:46:00,34.6,32.5,30.08,NNW,342,0.0,0.0,92,0.00,CLR,,0.00,WeatherDisplay:10.37,2013-03-28 12:46:00,
2013-03-28 08:51:00,34.8,32.7,30.09,WNW,294,0.0,0.0,92,0.00,CLR,,0.00,WeatherDisplay:10.37,2013-03-28 12:51:00,
2013-03-28 08:56:00,34.9,32.8,30.09,WSW,250,2.8,6.9,92,0.00,CLR,,0.00,WeatherDisplay:10.37,2013-03-28 12:56:00,
2013-03-28 09:01:00,35.0,32.9,30.09,West,263,0.0,0.0,92,0.00,CLR,,0.00,WeatherDisplay:10.37,2013-03-28 13:01:00,
2013-03-28 09:07:00,35.1,33.0,30.09,West,271,0.0,0.0,92,0.00,CLR,,0.00,WeatherDisplay:10.37,2013-03-28 13:07:00,
2013-03-28 09:12:00,35.3,33.2,30.09,West,264,1.4,3.5,92,0.00,CLR,,0.00,WeatherDisplay:10.37,2013-03-28 13:12:00,
2013-03-28 09:17:00,35.5,33.1,30.09,West,273,0.0,0.0,91,0.00,CLR,,0.00,WeatherDisplay:10.37,2013-03-28 13:17:00,
2013-03-28 09:22:00,35.6,33.2,30.09,West,274,0.0,0.0,91,0.00,CLR,,0.00,WeatherDisplay:10.37,2013-03-28 13:22:00,
2013-03-28 09:27:00,35.9,33.5,30.09,WSW,244,0.0,0.0,91,0.00,CLR,,0.00,WeatherDisplay:10.37,2013-03-28 13:27:00,
2013-03-28 09:32:00,36.2,33.5,30.09,WSW,249,0.0,0.0,90,0.00,CLR,,0.00,WeatherDisplay:10.37,2013-03-28 13:32:00,
2013-03-28 09:37:00,36.5,33.8,30.09,NW,323,0.0,5.8,90,0.00,CLR,,0.00,WeatherDisplay:10.37,2013-03-28 13:37:00,
2013-03-28 09:42:00,36.7,33.8,30.09,SSW,200,0.0,3.5,89,0.00,CLR,,0.00,WeatherDisplay:10.37,2013-03-28 13:42:00,
2013-03-28 09:48:00,36.8,33.9,30.09,West,271,2.1,5.8,89,0.00,CLR,,0.00,WeatherDisplay:10.37,2013-03-28 13:48:00,
2013-03-28 09:53:00,36.6,33.1,30.10,SW,234,1.8,4.6,87,0.00,CLR,,0.00,WeatherDisplay:10.37,2013-03-28 13:53:00,
2013-03-28 09:58:00,36.7,33.2,30.09,SW,223,3.2,5.8,87,0.00,CLR,,0.00,WeatherDisplay:10.37,2013-03-28 13:58:00,
2013-03-28 10:03:00,36.8,33.3,30.09,WNW,298,1.6,3.5,87,0.00,CLR,,0.00,WeatherDisplay:10.37,2013-03-28 14:03:00,
2013-03-28 10:08:00,37.2,33.7,30.09,South,172,0.2,0.0,87,0.00,CLR,,0.00,WeatherDisplay:10.37,2013-03-28 14:08:00,
2013-03-28 10:13:00,37.6,33.8,30.10,WSW,245,1.9,4.6,86,0.00,CLR,,0.00,WeatherDisplay:10.37,2013-03-28 14:13:00,
2013-03-28 10:19:00,37.8,34.0,30.10,WSW,249,0.0,0.0,86,0.00,CLR,,0.00,WeatherDisplay:10.37,2013-03-28 14:19:00,
2013-03-28 10:24:00,38.0,33.9,30.10,West,272,2.9,4.6,85,0.00,CLR,,0.00,WeatherDisplay:10.37,2013-03-28 14:24:00,
2013-03-28 10:29:00,38.2,34.1,30.10,West,264,0.0,0.0,85,0.00,CLR,,0.00,WeatherDisplay:10.37,2013-03-28 14:29:00,
2013-03-28 10:34:00,38.4,34.3,30.10,West,260,1.4,4.6,85,0.00,CLR,,0.00,WeatherDisplay:10.37,2013-03-28 14:34:00,
2013-03-28 10:39:00,38.5,34.1,30.10,SW,234,0.5,5.0,84,0.00,CLR,,0.00,WeatherDisplay:10.37,2013-03-28 14:39:00,
2013-03-28 10:44:00,38.6,33.9,30.10,NW,325,2.2,6.9,83,0.00,CLR,,0.00,WeatherDisplay:10.37,2013-03-28 14:44:00,
2013-03-28 10:49:00,38.8,33.8,30.10,NW,317,0.0,1.1,82,0.00,CLR,,0.00,WeatherDisplay:10.37,2013-03-28 14:49:00,
2013-03-28 10:55:00,39.0,34.3,30.10,SW,223,1.6,5.8,83,0.00,CLR,,0.00,WeatherDisplay:10.37,2013-03-28 14:55:00,
2013-03-28 11:00:00,39.4,34.7,30.10,WSW,253,4.1,6.9,83,0.00,CLR,,0.00,WeatherDisplay:10.37,2013-03-28 15:00:00,
2013-03-28 11:05:00,39.6,34.6,30.11,SW,222,0.0,0.0,82,0.00,CLR,,0.00,WeatherDisplay:10.37,2013-03-28 15:05:00,
2013-03-28 11:10:00,39.6,34.2,30.11,South,188,3.4,5.8,81,0.00,CLR,,0.00,WeatherDisplay:10.37,2013-03-28 15:10:00,
2013-03-28 11:15:00,39.6,34.2,30.10,SSW,194,2.9,3.5,81,0.00,CLR,,0.00,WeatherDisplay:10.37,2013-03-28 15:15:00,
2013-03-28 11:20:00,39.4,34.1,30.10,WSW,238,0.0,4.6,81,0.00,CLR,,0.00,WeatherDisplay:10.37,2013-03-28 15:20:00,
2013-03-28 11:25:00,39.6,34.2,30.11,SSW,205,1.6,3.5,81,0.00,CLR,,0.00,WeatherDisplay:10.37,2013-03-28 15:25:00,
2013-03-28 11:30:00,39.9,34.2,30.11,West,264,1.8,4.6,80,0.00,CLR,,0.00,WeatherDisplay:10.37,2013-03-28 15:30:00,
2013-03-28 11:35:00,40.2,34.2,30.11,SW,220,0.1,3.5,79,0.00,CLR,,0.00,WeatherDisplay:10.37,2013-03-28 15:35:00,
2013-03-28 11:41:00,40.2,33.9,30.11,SW,227,0.0,2.3,78,0.00,CLR,,0.00,WeatherDisplay:10.37,2013-03-28 15:41:00,
2013-03-28 11:46:00,40.2,34.5,30.11,SW,225,0.0,0.0,80,0.00,CLR,,0.00,WeatherDisplay:10.37,2013-03-28 15:46:00,
2013-03-28 11:51:00,40.3,34.3,30.11,SW,227,0.0,0.0,79,0.00,CLR,,0.00,WeatherDisplay:10.37,2013-03-28 15:51:00,
2013-03-28 11:56:00,40.6,34.3,30.11,NW,313,5.0,6.9,78,0.00,CLR,,0.00,WeatherDisplay:10.37,2013-03-28 15:56:00,
2013-03-28 12:01:00,40.7,34.0,30.11,NW,315,0.8,3.5,77,0.00,CLR,,0.00,WeatherDisplay:10.37,2013-03-28 16:01:00,
2013-03-28 12:06:00,40.9,34.2,30.11,WSW,254,0.4,0.0,77,0.00,CLR,,0.00,WeatherDisplay:10.37,2013-03-28 16:06:00,
2013-03-28 12:12:00,41.2,34.2,30.11,West,264,3.5,4.6,76,0.00,CLR,,0.00,WeatherDisplay:10.37,2013-03-28 16:12:00,
2013-03-28 12:17:00,41.5,34.8,30.11,West,260,0.0,0.0,77,0.00,CLR,,0.00,WeatherDisplay:10.37,2013-03-28 16:17:00,
2013-03-28 12:22:00,41.8,34.5,30.11,WSW,239,4.3,5.8,75,0.00,CLR,,0.00,WeatherDisplay:10.37,2013-03-28 16:22:00,
2013-03-28 12:27:00,41.9,34.6,30.10,South,187,2.2,2.3,75,0.00,CLR,,0.00,WeatherDisplay:10.37,2013-03-28 16:27:00,
2013-03-28 12:32:00,41.9,33.9,30.10,South,169,2.5,4.6,73,0.00,CLR,,0.00,WeatherDisplay:10.37,2013-03-28 16:32:00,
2013-03-28 12:37:00,42.3,34.6,30.10,SW,223,1.2,6.0,74,0.00,CLR,,0.00,WeatherDisplay:10.37,2013-03-28 16:37:00,
2013-03-28 12:43:00,42.4,34.4,30.10,SW,236,3.5,6.9,73,0.00,CLR,,0.00,WeatherDisplay:10.37,2013-03-28 16:43:00,
2013-03-28 12:48:00,42.3,33.6,30.10,WSW,255,1.5,6.0,71,0.00,CLR,,0.00,WeatherDisplay:10.37,2013-03-28 16:48:00,
2013-03-28 12:53:00,42.0,33.3,30.10,SSW,213,2.8,4.6,71,0.00,CLR,,0.00,WeatherDisplay:10.37,2013-03-28 16:53:00,
2013-03-28 12:58:00,41.9,33.5,30.10,SW,230,1.9,3.5,72,0.00,CLR,,0.00,WeatherDisplay:10.37,2013-03-28 16:58:00,
2013-03-28 13:03:00,41.8,33.1,30.10,West,273,2.1,5.0,71,0.00,CLR,,0.00,WeatherDisplay:10.37,2013-03-28 17:03:00,
2013-03-28 13:08:00,41.6,32.9,30.10,SSW,207,0.3,2.3,71,0.00,CLR,,0.00,WeatherDisplay:10.37,2013-03-28 17:08:00,
2013-03-28 13:13:00,41.7,32.3,30.10,SW,230,0.8,3.5,69,0.00,CLR,,0.00,WeatherDisplay:10.37,2013-03-28 17:13:00,
2013-03-28 13:18:00,41.8,32.4,30.10,SW,225,0.0,0.0,69,0.00,CLR,,0.00,WeatherDisplay:10.37,2013-03-28 17:18:00,
2013-03-28 13:23:00,41.9,32.5,30.10,SW,223,0.0,0.0,69,0.00,CLR,,0.00,WeatherDisplay:10.37,2013-03-28 17:23:00,
2013-03-28 13:29:00,41.8,32.7,30.10,NW,323,0.0,0.0,70,0.00,CLR,,0.00,WeatherDisplay:10.37,2013-03-28 17:29:00,
2013-03-28 13:34:00,41.7,33.0,30.10,NW,323,0.0,0.0,71,0.00,CLR,,0.00,WeatherDisplay:10.37,2013-03-28 17:34:00,
2013-03-28 13:39:00,41.6,32.9,30.10,NNW,334,0.0,1.1,71,0.00,CLR,,0.00,WeatherDisplay:10.37,2013-03-28 17:39:00,
2013-03-28 13:44:00,41.5,33.1,30.10,NW,311,0.4,3.5,72,0.00,CLR,,0.00,WeatherDisplay:10.37,2013-03-28 17:44:00,
2013-03-28 13:49:00,41.4,33.0,30.10,NW,311,0.0,0.0,72,0.00,CLR,,0.00,WeatherDisplay:10.37,2013-03-28 17:49:00,
2013-03-28 13:54:00,41.4,33.0,30.10,NNE,22,0.0,0.0,72,0.00,CLR,,0.00,WeatherDisplay:10.37,2013-03-28 17:54:00,
2013-03-28 13:59:00,41.4,33.7,30.11,NW,305,0.0,0.0,74,0.00,CLR,,0.00,WeatherDisplay:10.37,2013-03-28 17:59:00,
2013-03-28 14:04:00,41.4,33.4,30.10,NW,305,0.0,0.0,73,0.00,CLR,,0.00,WeatherDisplay:10.37,2013-03-28 18:04:00,
2013-03-28 14:09:00,41.5,33.1,30.11,NW,304,0.0,0.0,72,0.00,CLR,,0.00,WeatherDisplay:10.37,2013-03-28 18:09:00,
2013-03-28 14:14:00,41.5,33.1,30.11,NW,305,0.0,0.0,72,0.00,CLR,,0.00,WeatherDisplay:10.37,2013-03-28 18:14:00,
2013-03-28 14:19:00,41.5,31.7,30.10,WNW,283,0.6,2.3,68,0.00,CLR,,0.00,WeatherDisplay:10.37,2013-03-28 18:19:00,
2013-03-28 14:24:00,41.6,31.4,30.10,NW,308,0.0,1.1,67,0.00,CLR,,0.00,WeatherDisplay:10.37,2013-03-28 18:24:00,
2013-03-28 14:30:00,41.8,31.3,30.11,WSW,256,0.9,3.5,66,0.00,CLR,,0.00,WeatherDisplay:10.37,2013-03-28 18:30:00,
2013-03-28 14:35:00,42.0,30.7,30.10,NW,325,2.8,4.6,64,0.00,CLR,,0.00,WeatherDisplay:10.37,2013-03-28 18:35:00,
2013-03-28 14:40:00,42.0,30.3,30.11,NNW,330,0.0,0.0,63,0.00,,,0.00,WeatherDisplay:10.37,2013-03-28 18:40:00,
2013-03-28 14:45:00,42.2,30.1,30.11,NNW,331,2.5,3.5,62,0.00,,,0.00,WeatherDisplay:10.37,2013-03-28 18:45:00,
2013-03-28 14:50:00,42.3,30.2,30.11,NW,319,0.0,0.0,62,0.00,,,0.00,WeatherDisplay:10.37,2013-03-28 18:50:00,
2013-03-28 14:55:00,42.4,30.7,30.11,WSW,241,0.0,0.0,63,0.00,,,0.00,WeatherDisplay:10.37,2013-03-28 18:55:00,
2013-03-28 15:00:00,42.6,30.5,30.11,SW,228,3.4,4.0,62,0.00,,,0.00,WeatherDisplay:10.37,2013-03-28 19:00:00,
2013-03-28 15:05:00,42.6,30.5,30.10,SW,235,1.1,3.5,62,0.00,,,0.00,WeatherDisplay:10.37,2013-03-28 19:05:00,
2013-03-28 15:11:00,42.7,30.2,30.10,WNW,288,0.4,3.5,61,0.00,,,0.00,WeatherDisplay:10.37,2013-03-28 19:11:00,
2013-03-28 15:16:00,42.8,29.9,30.10,SSW,209,0.5,3.5,60,0.00,,,0.00,WeatherDisplay:10.37,2013-03-28 19:16:00,
2013-03-28 15:21:00,42.9,30.0,30.10,SW,227,0.1,4.6,60,0.00,,,0.00,WeatherDisplay:10.37,2013-03-28 19:21:00,
2013-03-28 15:27:00,43.1,30.1,30.10,SW,229,1.2,3.5,60,0.00,,,0.00,WeatherDisplay:10.37,2013-03-28 19:27:00,
2013-03-28 15:32:00,43.0,29.6,30.10,WSW,244,3.0,4.6,59,0.00,,,0.00,WeatherDisplay:10.37,2013-03-28 19:32:00,
2013-03-28 15:37:00,43.0,30.1,30.10,WNW,302,1.9,3.5,60,0.00,,,0.00,WeatherDisplay:10.37,2013-03-28 19:37:00,
2013-03-28 15:42:00,43.0,30.5,30.10,WNW,300,0.1,3.0,61,0.00,,,0.00,WeatherDisplay:10.37,2013-03-28 19:42:00,
2013-03-28 15:47:00,43.1,30.6,30.10,NNW,341,0.0,0.0,61,0.00,,,0.00,WeatherDisplay:10.37,2013-03-28 19:47:00,
2013-03-28 15:53:00,43.2,30.6,30.10,WNW,294,0.0,4.6,61,0.00,,,0.00,WeatherDisplay:10.37,2013-03-28 19:53:00,
2013-03-28 15:58:00,43.4,30.8,30.10,WNW,297,0.0,0.0,61,0.00,,,0.00,WeatherDisplay:10.37,2013-03-28 19:58:00,
2013-03-28 16:03:00,43.5,30.5,30.10,SSW,198,0.0,0.0,60,0.00,,,0.00,WeatherDisplay:10.37,2013-03-28 20:03:00,
2013-03-28 16:09:00,43.5,30.1,30.10,WSW,244,2.4,8.1,59,0.00,,,0.00,WeatherDisplay:10.37,2013-03-28 20:09:00,
2013-03-28 16:14:00,43.5,30.5,30.10,SW,222,0.1,3.5,60,0.00,,,0.00,WeatherDisplay:10.37,2013-03-28 20:14:00,
2013-03-28 16:19:00,43.4,30.0,30.10,South,182,0.6,4.0,59,0.00,,,0.00,WeatherDisplay:10.37,2013-03-28 20:19:00,
2013-03-28 16:24:00,43.4,30.4,30.10,WSW,252,0.8,3.5,60,0.00,,,0.00,WeatherDisplay:10.37,2013-03-28 20:24:00,
2013-03-28 16:29:00,43.3,29.5,30.11,SW,234,3.6,5.8,58,0.00,,,0.00,WeatherDisplay:10.37,2013-03-28 20:29:00,
2013-03-28 16:34:00,43.2,29.8,30.11,North,11,0.0,0.0,59,0.00,,,0.00,WeatherDisplay:10.37,2013-03-28 20:34:00,
2013-03-28 16:40:00,43.1,28.9,30.11,NW,326,2.7,4.6,57,0.00,,,0.00,WeatherDisplay:10.37,2013-03-28 20:40:00,
2013-03-28 16:45:00,43.1,29.3,30.11,SW,214,0.8,3.5,58,0.00,,,0.00,WeatherDisplay:10.37,2013-03-28 20:45:00,
2013-03-28 16:50:00,43.1,29.3,30.11,SW,230,2.4,4.6,58,0.00,,,0.00,WeatherDisplay:10.37,2013-03-28 20:50:00,
2013-03-28 16:55:00,43.1,29.3,30.11,West,276,3.5,5.8,58,0.00,,,0.00,WeatherDisplay:10.37,2013-03-28 20:55:00,
2013-03-28 17:00:00,43.1,28.9,30.11,West,264,1.0,3.5,57,0.00,,,0.00,WeatherDisplay:10.37,2013-03-28 21:00:00,
2013-03-28 17:06:00,43.2,29.0,30.11,West,263,1.0,3.5,57,0.00,,,0.00,WeatherDisplay:10.37,2013-03-28 21:06:00,
2013-03-28 17:11:00,43.2,29.0,30.11,NW,314,0.0,1.1,57,0.00,,,0.00,WeatherDisplay:10.37,2013-03-28 21:11:00,
2013-03-28 17:16:00,43.3,29.5,30.11,West,271,0.0,0.0,58,0.00,,,0.00,WeatherDisplay:10.37,2013-03-28 21:16:00,
2013-03-28 17:21:00,43.2,28.5,30.11,NE,40,0.4,3.5,56,0.00,,,0.00,WeatherDisplay:10.37,2013-03-28 21:21:00,
2013-03-28 17:26:00,43.1,28.0,30.11,WNW,296,1.1,3.5,55,0.00,,,0.00,WeatherDisplay:10.37,2013-03-28 21:26:00,
2013-03-28 17:32:00,43.0,27.9,30.11,NW,312,3.5,6.9,55,0.00,,,0.00,WeatherDisplay:10.37,2013-03-28 21:32:00,
2013-03-28 17:37:00,43.1,28.0,30.11,NNW,332,1.5,3.5,55,0.00,,,0.00,WeatherDisplay:10.37,2013-03-28 21:37:00,
2013-03-28 17:42:00,43.1,28.0,30.11,NNW,333,1.7,5.8,55,0.00,,,0.00,WeatherDisplay:10.37,2013-03-28 21:42:00,
2013-03-28 17:47:00,43.2,28.1,30.12,West,271,0.8,4.6,55,0.00,,,0.00,WeatherDisplay:10.37,2013-03-28 21:47:00,
2013-03-28 17:52:00,43.2,28.1,30.12,WNW,296,0.0,0.0,55,0.00,,,0.00,WeatherDisplay:10.37,2013-03-28 21:52:00,
2013-03-28 17:58:00,43.1,31.4,30.12,SW,225,5.1,8.1,63,0.00,,,0.00,WeatherDisplay:10.37,2013-03-28 21:58:00,
2013-03-28 18:03:00,42.5,32.3,30.12,SSW,209,1.1,3.5,67,0.00,,,0.00,WeatherDisplay:10.37,2013-03-28 22:03:00,
2013-03-28 18:08:00,42.0,32.2,30.12,WSW,246,7.4,11.5,68,0.00,,,0.00,WeatherDisplay:10.37,2013-03-28 22:08:00,
2013-03-28 18:13:00,41.8,32.4,30.13,WSW,244,5.3,9.2,69,0.00,,,0.00,WeatherDisplay:10.37,2013-03-28 22:13:00,
2013-03-28 18:18:00,41.6,32.5,30.13,SW,235,0.7,5.8,70,0.00,,,0.00,WeatherDisplay:10.37,2013-03-28 22:18:00,
2013-03-28 18:23:00,41.5,32.4,30.13,SW,236,2.4,5.8,70,0.00,,,0.00,WeatherDisplay:10.37,2013-03-28 22:23:00,
2013-03-28 18:28:00,41.4,32.7,30.13,SSW,213,1.7,5.8,71,0.00,,,0.00,WeatherDisplay:10.37,2013-03-28 22:28:00,
2013-03-28 18:33:00,41.3,32.2,30.13,SW,221,3.2,3.5,70,0.00,,,0.00,WeatherDisplay:10.37,2013-03-28 22:33:00,
2013-03-28 18:39:00,41.2,32.2,30.13,SW,232,3.5,9.2,70,0.00,,,0.00,WeatherDisplay:10.37,2013-03-28 22:39:00,
2013-03-28 18:44:00,41.1,32.4,30.13,SW,223,0.2,3.5,71,0.00,,,0.00,WeatherDisplay:10.37,2013-03-28 22:44:00,
2013-03-28 18:49:00,41.1,32.4,30.14,SW,236,2.5,4.6,71,0.00,,,0.00,WeatherDisplay:10.37,2013-03-28 22:49:00,
2013-03-28 18:54:00,41.0,32.3,30.14,WSW,238,0.7,3.5,71,0.00,,,0.00,WeatherDisplay:10.37,2013-03-28 22:54:00,
2013-03-28 18:59:00,41.0,32.3,30.14,SW,223,3.1,6.0,71,0.00,,,0.00,WeatherDisplay:10.37,2013-03-28 22:59:00,
2013-03-28 19:04:00,40.9,32.2,30.14,SW,221,0.3,2.3,71,0.00,,,0.00,WeatherDisplay:10.37,2013-03-28 23:04:00,
2013-03-28 19:10:00,40.9,32.2,30.14,SW,232,0.2,3.5,71,0.00,,,0.00,WeatherDisplay:10.37,2013-03-28 23:10:00,
2013-03-28 19:15:00,40.8,32.1,30.14,SW,227,1.4,3.5,71,0.00,,,0.00,WeatherDisplay:10.37,2013-03-28 23:15:00,
2013-03-28 19:20:00,40.8,32.5,30.14,SW,221,0.0,0.0,72,0.00,,,0.00,WeatherDisplay:10.37,2013-03-28 23:20:00,
2013-03-28 19:25:00,40.7,32.4,30.15,WSW,257,3.8,6.9,72,0.00,,,0.00,WeatherDisplay:10.37,2013-03-28 23:25:00,
2013-03-28 19:31:00,40.6,32.3,30.15,SSW,205,0.8,6.9,72,0.00,,,0.00,WeatherDisplay:10.37,2013-03-28 23:31:00,
2013-03-28 19:36:00,40.5,32.5,30.15,SW,230,0.0,0.0,73,0.00,CLR,,0.00,WeatherDisplay:10.37,2013-03-28 23:36:00,
2013-03-28 19:41:00,40.4,32.4,30.15,WSW,252,2.8,5.8,73,0.00,CLR,,0.00,WeatherDisplay:10.37,2013-03-28 23:41:00,
2013-03-28 19:47:00,40.3,32.3,30.15,SW,234,3.9,10.4,73,0.00,CLR,,0.00,WeatherDisplay:10.37,2013-03-28 23:47:00,
2013-03-28 19:52:00,40.2,32.2,30.15,SW,233,0.0,2.3,73,0.00,CLR,,0.00,WeatherDisplay:10.37,2013-03-28 23:52:00,
2013-03-28 19:57:00,40.1,32.5,30.15,SW,228,1.9,4.0,74,0.00,CLR,,0.00,WeatherDisplay:10.37,2013-03-28 23:57:00,
2013-03-28 20:02:00,40.0,32.4,30.15,SW,221,0.8,4.6,74,0.00,CLR,,0.00,WeatherDisplay:10.37,2013-03-29 00:02:00,
2013-03-28 20:07:00,39.8,32.2,30.16,WSW,239,2.3,7.0,74,0.00,CLR,,0.00,WeatherDisplay:10.37,2013-03-29 00:07:00,
2013-03-28 20:13:00,39.8,32.5,30.16,SW,224,0.2,2.0,75,0.00,CLR,,0.00,WeatherDisplay:10.37,2013-03-29 00:13:00,
2013-03-28 20:18:00,39.7,32.4,30.16,SW,220,2.8,3.5,75,0.00,CLR,,0.00,WeatherDisplay:10.37,2013-03-29 00:18:00,
2013-03-28 20:23:00,39.7,32.4,30.16,SW,224,0.0,1.1,75,0.00,CLR,,0.00,WeatherDisplay:10.37,2013-03-29 00:23:00,
2013-03-28 20:28:00,39.6,32.7,30.16,SW,222,0.1,4.0,76,0.00,CLR,,0.00,WeatherDisplay:10.37,2013-03-29 00:28:00,
2013-03-28 20:33:00,39.5,32.6,30.16,SSW,198,2.4,4.6,76,0.00,CLR,,0.00,WeatherDisplay:10.37,2013-03-29 00:33:00,
2013-03-28 20:38:00,39.4,32.8,30.16,SW,223,2.0,4.6,77,0.00,CLR,,0.00,WeatherDisplay:10.37,2013-03-29 00:38:00,
2013-03-28 20:43:00,39.3,32.7,30.16,SW,214,0.8,2.3,77,0.00,CLR,,0.00,WeatherDisplay:10.37,2013-03-29 00:43:00,
2013-03-28 20:49:00,39.3,32.7,30.16,SSW,211,0.0,0.0,77,0.00,CLR,,0.00,WeatherDisplay:10.37,2013-03-29 00:49:00,
2013-03-28 20:54:00,39.2,32.6,30.16,SW,227,0.4,3.5,77,0.00,CLR,,0.00,WeatherDisplay:10.37,2013-03-29 00:54:00,
2013-03-28 20:59:00,39.1,32.5,30.16,SW,222,0.9,5.8,77,0.00,CLR,,0.00,WeatherDisplay:10.37,2013-03-29 00:59:00,
2013-03-28 21:04:00,39.0,32.7,30.16,SW,230,2.1,4.6,78,0.00,CLR,,0.00,WeatherDisplay:10.37,2013-03-29 01:04:00,
2013-03-28 21:09:00,38.8,32.5,30.16,SSW,196,0.0,2.3,78,0.00,CLR,,0.00,WeatherDisplay:10.37,2013-03-29 01:09:00,
2013-03-28 21:14:00,38.8,32.5,30.17,SW,229,0.0,0.0,78,0.00,CLR,,0.00,WeatherDisplay:10.37,2013-03-29 01:14:00,
2013-03-28 21:19:00,38.7,32.4,30.17,SW,232,1.3,3.5,78,0.00,CLR,,0.00,WeatherDisplay:10.37,2013-03-29 01:19:00,
2013-03-28 21:24:00,38.6,32.3,30.17,SW,218,0.0,0.0,78,0.00,CLR,,0.00,WeatherDisplay:10.37,2013-03-29 01:24:00,
2013-03-28 21:30:00,38.6,32.3,30.17,South,190,1.9,3.5,78,0.00,CLR,,0.00,WeatherDisplay:10.37,2013-03-29 01:30:00,
2013-03-28 21:35:00,38.5,32.2,30.17,South,184,1.8,3.5,78,0.00,CLR,,0.00,WeatherDisplay:10.37,2013-03-29 01:35:00,
2013-03-28 21:40:00,38.4,32.5,30.17,SSW,196,2.3,6.9,79,0.00,CLR,,0.00,WeatherDisplay:10.37,2013-03-29 01:40:00,
2013-03-28 21:45:00,38.3,32.4,30.17,SSW,210,3.5,8.1,79,0.00,CLR,,0.00,WeatherDisplay:10.37,2013-03-29 01:45:00,
2013-03-28 21:51:00,38.2,32.3,30.17,WSW,241,2.7,8.1,79,0.00,CLR,,0.00,WeatherDisplay:10.37,2013-03-29 01:51:00,
2013-03-28 21:56:00,38.2,32.3,30.17,SSW,211,0.0,0.0,79,0.00,CLR,,0.00,WeatherDisplay:10.37,2013-03-29 01:56:00,
2013-03-28 22:01:00,38.2,32.6,30.17,SW,233,2.9,4.6,80,0.00,CLR,,0.00,WeatherDisplay:10.37,2013-03-29 02:01:00,
2013-03-28 22:06:00,38.1,32.5,30.17,SW,227,3.1,3.5,80,0.00,CLR,,0.00,WeatherDisplay:10.37,2013-03-29 02:06:00,
2013-03-28 22:12:00,38.0,32.4,30.17,WSW,239,1.2,8.1,80,0.00,CLR,,0.00,WeatherDisplay:10.37,2013-03-29 02:12:00,
2013-03-28 22:17:00,38.0,32.4,30.17,SW,227,0.3,3.5,80,0.00,CLR,,0.00,WeatherDisplay:10.37,2013-03-29 02:17:00,
2013-03-28 22:22:00,38.0,32.4,30.17,West,271,4.1,9.2,80,0.00,CLR,,0.00,WeatherDisplay:10.37,2013-03-29 02:22:00,
2013-03-28 22:27:00,38.0,32.4,30.17,SSW,203,3.3,6.9,80,0.00,CLR,,0.00,WeatherDisplay:10.37,2013-03-29 02:27:00,
2013-03-28 22:32:00,38.0,32.4,30.17,WSW,241,4.4,7.0,80,0.00,CLR,,0.00,WeatherDisplay:10.37,2013-03-29 02:32:00,
2013-03-28 22:37:00,38.0,32.4,30.17,SW,231,1.6,3.0,80,0.00,,,0.00,WeatherDisplay:10.37,2013-03-29 02:37:00,
2013-03-28 22:42:00,38.0,32.4,30.17,SW,218,4.5,6.9,80,0.00,,,0.00,WeatherDisplay:10.37,2013-03-29 02:42:00,
2013-03-28 22:47:00,38.0,32.4,30.17,WSW,255,4.0,6.9,80,0.00,,,0.00,WeatherDisplay:10.37,2013-03-29 02:47:00,
2013-03-28 22:52:00,37.9,32.3,30.17,SW,236,2.1,8.1,80,0.00,,,0.00,WeatherDisplay:10.37,2013-03-29 02:52:00,
2013-03-28 22:57:00,38.0,32.4,30.17,SSW,203,6.9,10.4,80,0.00,,,0.00,WeatherDisplay:10.37,2013-03-29 02:57:00,
2013-03-28 23:03:00,37.9,32.3,30.17,SW,225,1.8,3.5,80,0.00,,,0.00,WeatherDisplay:10.37,2013-03-29 03:03:00,
2013-03-28 23:08:00,37.9,32.3,30.17,WSW,254,3.9,6.0,80,0.00,,,0.00,WeatherDisplay:10.37,2013-03-29 03:08:00,
2013-03-28 23:13:00,37.9,32.3,30.17,SW,223,4.4,5.8,80,0.00,,,0.00,WeatherDisplay:10.37,2013-03-29 03:13:00,
2013-03-28 23:18:00,37.9,32.3,30.17,SW,214,2.3,5.8,80,0.00,,,0.00,WeatherDisplay:10.37,2013-03-29 03:18:00,
2013-03-28 23:23:00,37.8,32.5,30.17,SW,225,2.6,6.9,81,0.00,,,0.00,WeatherDisplay:10.37,2013-03-29 03:23:00,
2013-03-28 23:28:00,37.8,32.5,30.17,SW,225,3.5,5.8,81,0.00,,,0.00,WeatherDisplay:10.37,2013-03-29 03:28:00,
2013-03-28 23:34:00,37.8,32.5,30.17,SSW,211,3.2,5.8,81,0.00,,,0.00,WeatherDisplay:10.37,2013-03-29 03:34:00,
2013-03-28 23:39:00,37.7,32.4,30.17,SW,222,2.4,3.5,81,0.00,,,0.00,WeatherDisplay:10.37,2013-03-29 03:39:00,
2013-03-28 23:44:00,37.7,32.4,30.17,SSW,213,3.3,4.0,81,0.00,,,0.00,WeatherDisplay:10.37,2013-03-29 03:44:00,
2013-03-28 23:49:00,37.7,32.4,30.17,South,187,1.2,3.5,81,0.00,,,0.00,WeatherDisplay:10.37,2013-03-29 03:49:00,
2013-03-28 23:54:00,37.6,32.3,30.17,SW,215,0.4,3.5,81,0.00,,,0.00,WeatherDisplay:10.37,2013-03-29 03:54:00,
2013-03-28 23:59:00,37.6,32.3,30.17,SW,236,5.2,6.9,81,0.00,,,0.00,WeatherDisplay:10.37,2013-03-29 03:59:00,